Погода в Нельсоне-Бэй

Австралия     32°43′22″S   152°08′36″E
темп.,
°C
ветер,
м/с
пор.,
м/с
влажн.,
%
обл.,
%
осадки,
мм/ч
давл.,
гПа
погр.,
м
19 мая, ср
ср1901:00+16ссз33770 0.0 1027196
04:00+15сз33780 0.0 1027217
07:00+14зсз33800 0.0 1028236
10:00+14зсз22740 0.0 1029249
13:00+15вюв21690 0.0 1026189
16:00+18всв44650 0.0 1026345
19:00+19ссв55650 0.0 1027602
22:00+17с57790 0.0 1027325
20 мая, чт
чт2001:00+16с56795 0.0 1026277
04:00+15зсз33815 0.0 1025230
07:00+14зсз33775 0.0 1027226
10:00+15зсз336384 0.0 1027245
13:00+19зсз24455 0.0 1024778
16:00+20з35465 0.0 1024704
19:00+19юз12475 0.0 1026427
22:00+18зюз125587 0.0 1027383
21 мая, пт
пт2101:00+19ююз455294 0.0 10271096
04:00+17зюз4668100 0.1 1027894
07:00+18ю586337 0.1 10281098
10:00+19ю466038 0.3 10291153
13:00+19ююв666419 0.4 10271079
16:00+19ююв667293 2.8 1027795
19:00+19ююв877446 3.3 1028702
22:00+19юв887389 7.1 1028923
22 мая, сб
сб2201:00+19юв997199 2.5 10271136
04:00+19ююв7766100 4.3 10261374
07:00+19ююв6662100 0.2 10271260
10:00+19ююв656356 0.2 10271023
13:00+18ю54624 0.0 1026932
16:00+18ю44620 0.0 1025997
19:00+19ю44620 0.0 1026953
22:00+19ю33590 0.0 1026968
23 мая, вс
вс2301:00+17зюз33660 0.0 1026644
04:00+16зюз55774 0.0 1026402
07:00+17зюз667751 0.0 1027648
10:00+17зюз438136 1.3 1028263
13:00+18ююв137075 0.9 1026709
16:00+19юв45689 1.5 1026849
19:00+19юв56695 1.6 1027886
22:00+19вюв557111 3.6 1027745